Location: Pedimozza
(42.0500°N, 9.3500°E)
Time: 00:02:04
(UTC+00:00)

Meteor 2-4 Rocket - Pass Details

Date: 19 August 2019
Orbit: 798 x 909 km, 81.2° (Epoch: 20 September)

Event Time Altitude Azimuth Distance (km) Brightness Sun altitude
Rises 20:08:00 0° 350° (N) 3,334 7.6 -18.9°
Reaches altitude 10° 20:10:24 10° 351° (N) 2,390 6.7 -19.2°
Maximum altitude 20:15:48 85° 81° (E) 807 3.5 -20.0°
Enters shadow 20:18:15 34° 168° (SSE) 1,303 4.3 -20.3°
